Location: Asni�res
(49.1337°N, 2.3555°E)
Time: 18:17:18
(UTC+00:00)

Cosmos 1535 Rocket - Pass Details

Date: 03 June 2022
Orbit: 949 x 1003 km, 83.0° (Epoch: 28 June)

Event Time Altitude Azimuth Distance (km) Brightness Sun altitude
Rises 01:29:36 0° 1° (N) 3,671 8.8 -15.1°
Reaches altitude 10° 01:33:40 10° 27° (NNE) 2,731 8.3 -14.8°
Maximum altitude 01:36:40 14° 56° (NE) 2,478 7.5 -14.6°
Drops below altitude 10° 01:39:40 10° 85° (E) 2,742 7.3 -14.4°
Sets 01:43:45 0° 111° (ESE) 3,697 7.6 -14.1°
